Estació municipal de Vilalleons (Osona, E.N.Guilleries-Savassona)

Consulta les dades en temps real de l'estació municipal de Vilalleons





Hora UTC 12:30
Temperatura 17.3 ºC
Humitat 72.0 %
Pressió 1010.8 hPa
Pluja 0.6 mm
Velocitat vent 4.8 km/h
Direcció vent SSW

Webcam

Dades diàries 2026-05-05



Hora UTC (hivern +1h; estiu +2h)
Temperatura (ºC) Humitat (%) Pressió (hPa) Velocitat vent (km/h) Precipitació (mm)
Hora UTC Aire Humitat Pressió Vel. Dir. Vel. Max Dir. Intent. màx 5 min.
00:05 7.7 94.0 1011.7 1.6 SE 1.6 0.0
00:10 7.6 94.0 1011.8 0.0 SE 3.2 0.2
00:15 7.6 94.0 1011.7 0.0 SE 3.2 0.0
00:20 7.6 95.0 1011.8 0.0 SE 3.2 0.0
00:25 7.4 94.0 1011.8 0.0 SE 0.0 0.0
00:30 7.4 94.0 1011.7 0.0 SE 0.0 0.0
00:35 7.4 94.0 1011.8 0.0 SE 0.0 0.0
00:40 7.3 94.0 1011.8 0.0 SE 0.0 0.0
00:45 7.2 94.0 1011.7 0.0 SE 0.0 0.0
00:50 7.1 94.0 1011.6 0.0 SE 0.0 0.0
00:55 7.0 94.0 1011.6 0.0 SE 0.0 0.0
01:00 6.9 94.0 1011.7 3.2 SE 4.8 0.0
01:05 6.9 95.0 1011.7 1.6 SE 4.8 0.0
01:10 6.9 95.0 1011.7 1.6 SE 4.8 0.0
01:15 6.8 95.0 1011.5 3.2 SE 4.8 0.0
01:20 6.9 95.0 1011.6 0.0 SE 4.8 0.0
01:25 6.9 95.0 1011.6 1.6 SE 4.8 0.0
01:30 6.8 95.0 1011.5 1.6 SE 4.8 0.0
01:35 6.8 95.0 1011.7 0.0 SE 4.8 0.0
01:40 6.9 95.0 1011.6 0.0 SE 3.2 0.0
01:45 6.8 95.0 1011.5 3.2 SE 3.2 0.0
01:50 6.8 95.0 1011.4 0.0 SE 3.2 0.0
01:55 6.8 96.0 1011.5 0.0 SE 3.2 0.0
02:00 6.8 96.0 1011.5 3.2 SE 3.2 0.0
02:05 6.7 96.0 1011.6 3.2 SE 3.2 0.0
02:10 6.7 95.0 1011.5 0.0 SE 3.2 0.0
02:15 6.7 95.0 1011.6 1.6 SE 3.2 0.0
02:20 6.7 95.0 1011.5 0.0 SE 3.2 0.0
02:25 6.6 95.0 1011.4 1.6 SE 3.2 0.0
02:30 6.6 96.0 1011.6 3.2 SE 3.2 0.0
02:35 6.6 95.0 1011.5 0.0 SE 4.8 0.0
02:40 6.5 96.0 1011.5 0.0 SE 4.8 0.0
02:45 6.6 96.0 1011.4 1.6 SE 3.2 0.0
02:50 6.6 96.0 1011.5 0.0 SE 1.6 0.0
02:55 6.7 96.0 1011.6 0.0 SE 0.0 0.0
03:00 6.6 96.0 1011.6 0.0 SE 0.0 0.0
03:05 6.6 96.0 1011.6 3.2 SE 4.8 0.0
03:10 6.4 96.0 1011.3 0.0 SE 4.8 0.0
03:15 6.3 96.0 1011.4 0.0 SE 3.2 0.0
03:20 6.3 96.0 1011.5 1.6 SE 3.2 0.0
03:25 6.3 96.0 1011.4 3.2 SE 3.2 0.0
03:30 6.3 96.0 1011.4 3.2 SE 3.2 0.0
03:35 6.2 96.0 1011.4 0.0 SE 3.2 0.0
03:40 6.1 96.0 1011.4 1.6 SE 3.2 0.0
03:45 6.1 96.0 1011.3 0.0 SE 3.2 0.0
03:50 6.1 96.0 1011.2 0.0 SE 3.2 0.0
03:55 6.0 96.0 1011.3 3.2 SE 3.2 0.0
04:00 6.0 96.0 1011.3 0.0 SE 3.2 0.0
04:05 5.9 96.0 1011.4 0.0 SE 1.6 0.0
04:10 5.9 96.0 1011.3 0.0 SE 1.6 0.0
04:15 5.9 96.0 1011.2 3.2 SE 3.2 0.0
04:20 5.8 96.0 1011.2 0.0 SE 3.2 0.0
04:25 5.8 96.0 1011.2 0.0 SE 0.0 0.0
04:30 5.7 96.0 1011.2 0.0 SE 0.0 0.0
04:35 5.6 96.0 1011.4 0.0 SE 0.0 0.0
04:40 5.7 96.0 1011.3 0.0 SE 0.0 0.0
04:45 5.7 96.0 1011.3 0.0 SE 0.0 0.0
04:50 5.7 96.0 1011.3 0.0 SE 0.0 0.0
04:55 5.6 96.0 1011.4 0.0 SE 0.0 0.0
05:00 5.6 96.0 1011.5 0.0 SE 0.0 0.0
05:05 5.7 97.0 1011.5 0.0 SE 0.0 0.0
05:10 5.8 97.0 1011.5 0.0 SE 0.0 0.0
05:15 5.9 97.0 1011.6 0.0 SE 0.0 0.0
05:20 6.1 97.0 1011.6 0.0 SE 0.0 0.0
05:25 6.3 98.0 1011.7 0.0 SE 0.0 0.0
05:30 6.6 98.0 1011.8 0.0 SE 0.0 0.0
05:35 6.8 98.0 1011.9 0.0 SE 0.0 0.0
05:40 7.0 98.0 1011.9 0.0 SE 0.0 0.0
05:45 7.3 98.0 1012.0 0.0 SE 0.0 0.0
05:50 7.6 98.0 1012.1 0.0 SE 0.0 0.0
05:55 7.8 98.0 1012.0 0.0 SE 0.0 0.0
06:00 8.1 98.0 1012.0 0.0 SE 0.0 0.0
06:05 8.2 98.0 1011.8 0.0 SE 0.0 0.0
06:10 8.2 98.0 1011.9 0.0 SE 0.0 0.0
06:15 8.3 98.0 1011.9 0.0 SE 0.0 0.0
06:20 8.4 98.0 1011.9 0.0 SE 0.0 0.0
06:25 8.4 98.0 1012.1 0.0 SE 0.0 0.0
06:30 8.5 98.0 1012.2 0.0 SE 0.0 0.0
06:35 8.6 98.0 1012.2 0.0 SE 0.0 0.0
06:40 8.6 98.0 1012.2 0.0 SE 0.0 0.0
06:45 8.6 98.0 1012.2 0.0 SE 0.0 0.0
06:50 8.7 98.0 1012.2 0.0 SE 0.0 0.0
06:55 8.7 98.0 1012.2 0.0 SE 0.0 0.0
07:00 8.8 98.0 1012.4 0.0 SE 0.0 0.0
07:05 8.9 98.0 1012.4 1.6 S 4.8 0.0
07:10 9.0 98.0 1012.1 1.6 SSW 4.8 0.0
07:15 9.1 98.0 1012.1 1.6 SSW 4.8 0.0
07:20 9.2 98.0 1012.3 1.6 SSW 3.2 0.0
07:25 9.3 98.0 1012.2 1.6 SSW 3.2 0.0
07:30 9.2 98.0 1011.9 1.6 SSW 3.2 0.0
07:35 9.1 98.0 1011.9 4.8 NNW 6.4 0.0
07:40 9.1 98.0 1012.0 0.0 NW 6.4 0.0
07:45 9.3 98.0 1012.0 0.0 NW 3.2 0.0
07:50 9.6 98.0 1012.0 3.2 NW 3.2 0.0
07:55 9.9 98.0 1012.0 3.2 W 4.8 0.0
08:00 9.9 98.0 1012.2 1.6 SW 6.4 0.0
08:05 10.0 98.0 1011.9 1.6 WSW 6.4 0.0
08:10 10.1 98.0 1012.1 4.8 SE 6.4 0.0
08:15 10.2 98.0 1012.1 1.6 SE 6.4 0.0
08:20 10.1 98.0 1011.9 0.0 SE 4.8 0.0
08:25 9.9 98.0 1012.0 0.0 SE 3.2 0.0
08:30 10.1 98.0 1012.2 0.0 ESE 3.2 0.0
08:35 10.3 98.0 1012.0 0.0 NW 4.8 0.0
08:40 10.5 98.0 1012.3 3.2 NNE 4.8 0.0
08:45 10.7 98.0 1012.4 1.6 NNW 4.8 0.0
08:50 11.1 98.0 1012.4 1.6 N 4.8 0.0
08:55 11.3 97.0 1012.4 4.8 NW 6.4 0.0
09:00 11.8 97.0 1012.4 1.6 W 6.4 0.0
09:05 12.1 95.0 1012.5 3.2 NW 6.4 0.0
09:10 12.3 93.0 1012.5 1.6 NNW 6.4 0.0
09:15 12.6 92.0 1012.5 0.0 NW 4.8 0.0
09:20 12.9 91.0 1012.4 1.6 WSW 4.8 0.0
09:25 13.1 90.0 1012.5 1.6 WSW 4.8 0.0
09:30 13.2 90.0 1012.3 0.0 WSW 3.2 0.0
09:35 13.5 90.0 1012.1 0.0 NNW 4.8 0.0
09:40 13.3 88.0 1012.3 0.0 NE 3.2 0.0
09:45 13.3 87.0 1012.0 0.0 NNW 0.0 0.0
09:50 13.4 88.0 1011.8 0.0 NNW 0.0 0.0
09:55 13.6 88.0 1011.5 0.0 NNE 0.0 0.0
10:00 13.8 89.0 1011.5 0.0 NNE 0.0 0.0
10:05 14.4 90.0 1011.7 0.0 SW 0.0 0.0
10:10 14.8 88.0 1011.9 1.6 WSW 4.8 0.0
10:15 15.1 86.0 1012.0 3.2 E 6.4 0.0
10:20 15.2 86.0 1012.1 1.6 WSW 6.4 0.0
10:25 15.3 84.0 1012.2 3.2 NNW 8.0 0.0
10:30 15.4 83.0 1012.2 4.8 NNE 8.0 0.0
10:35 15.5 81.0 1012.1 0.0 N 4.8 0.0
10:40 15.7 77.0 1012.3 1.6 NNE 4.8 0.0
10:45 15.9 73.0 1012.1 3.2 NNW 6.4 0.0
10:50 16.3 77.0 1011.9 1.6 NNE 6.4 0.0
10:55 16.6 79.0 1011.7 4.8 W 6.4 0.0
11:00 16.6 78.0 1011.8 0.0 W 6.4 0.0
11:05 16.6 78.0 1011.9 1.6 WNW 4.8 0.0
11:10 16.4 78.0 1011.8 0.0 WNW 4.8 0.0
11:15 16.6 81.0 1011.5 1.6 WNW 3.2 0.4
11:20 16.8 80.0 1011.6 1.6 S 4.8 0.0
11:25 16.8 80.0 1011.5 4.8 SSE 9.7 0.0
11:30 16.8 78.0 1011.5 4.8 WSW 9.7 0.0
11:35 17.1 77.0 1011.6 1.6 SSE 9.7 0.0
11:40 17.6 77.0 1011.4 4.8 SE 11.3 0.0
11:45 17.7 72.0 1011.3 4.8 SW 11.3 0.0
11:50 17.9 72.0 1011.5 3.2 SSE 11.3 0.0
11:55 18.3 69.0 1011.4 1.6 SW 9.7 0.0
12:00 18.8 72.0 1011.5 4.8 SE 11.3 0.0
12:05 18.8 67.0 1011.1 0.0 SSE 11.3 0.0
12:10 19.0 70.0 1011.2 3.2 SSW 6.4 0.0
12:15 18.7 68.0 1011.1 8.0 WSW 8.0 0.0
12:20 18.2 68.0 1011.0 1.6 S 8.0 0.0
12:25 17.7 70.0 1011.1 3.2 WSW 8.0 0.0
12:30 17.3 72.0 1010.8 4.8 SSW 8.0 0.0
Màxima 19.0 98.0 1012.5 8.0 WSW 11.3 0.4
Mínima 5.6 67.0 1010.8
Total 0.6